www.pogodaiklimat.ru

Погода и климат >> Архив погоды >> Италия >> Капо Беллависто


ПОГОДА на Капо Беллависто

  • Прогноз погоды на Капо Беллависто
  • Монитор погоды на Капо Беллависто

АРХИВ ПОГОДЫ на Капо Беллависто

Время (UTC), дата Ветер
(напр.,м/с)
 
Видим.   Явления Облачность Т
(С)
Тd
(С)
f
(%)
Тe
(С)
Тes
(С)
Комфортность P
(гПа)
Po
(гПа)
Тmin
(С)
Tmax
(С)
R
(мм)
R24
(мм)
S
(см)
04 15.08 СЗ 5 20 км ясно +24.0 +0.4 21 +23 +23 комфорт 1013.8 996.5
05 15.08 СЗ 4 20 км ясно +24.0 +1.0 22 +23 +23 комфорт 1013.8 996.6
06 15.08 З 3 20 км ясно +23.6 +6.0 32 +24 +25 комфорт 1014.3 997.1 +23.2
07 15.08 З 1 20 км ясно +25.0 +6.2 30 +25 +30 комфорт 1014.9 997.6
08 15.08 Ю 4 20 км ясно +28.0 +8.3 29 +28 +34 жарко 1014.9 997.9
09 15.08 СЗ 2 20 км ясно +30.0 +10.1 29 +30 +42 жарко 1015.0 998.1
10 15.08 ЮВ 3 20 км ясно +34.4 +10.9 24 +34 +48 очень
жарко
1014.8 998.1
11 15.08 ЮВ 5 20 км ясно +35.2 +11.6 24 +35 +45 очень
жарко
1014.8 998.1
12 15.08 ЮВ 5 20 км ясно +34.0 +12.9 28 +34 +43 очень
жарко
1014.8 998.1
13 15.08 Ю 2 20 км н/о +33.8 +13.8 30 +35 +35 очень
жарко
1014.6 997.9
14 15.08 С 3 20 км ясно +32.0 +14.2 34 +34 +43 душно 1014.5 997.6
15 15.08 Ю 4 20 км 1/0 1200 м
[]
+30.8 +17.5 45 +35 +39 очень
душно
1014.1 997.2
16 15.08 Ю 5 20 км 3/3 1200 м
[Cu hum]
+28.8 +17.7 51 +33 +35 очень
душно
1014.1 997.1
17 15.08 Ю 4 20 км ясно +29.2 +19.2 55 +35 +35 очень
душно
1014.1 997.1
18 15.08 Ю 2 20 км ясно +27.2 +19.3 62 +33 +33 очень
душно
1014.2 997.1 +35.4
19 15.08 ЮЗ 2 20 км ясно +25.2 +19.8 72 +31 +31 очень
душно
1014.4 997.2
20 15.08 ЮЗ 3 20 км ясно +24.6 +20.1 76 +30 +30 очень
душно
1015.2 997.9
21 15.08 З 3 20 км ясно +23.8 +19.3 76 +29 +29 душно 1015.3 998.0
22 15.08 З 3 20 км ясно +23.8 +18.9 74 +29 +29 душно 1015.3 998.0
23 15.08 СЗ 5 20 км ясно +25.0 +11.2 42 +26 +26 жарко 1015.2 998.0
00 16.08 З 5 20 км ясно +24.8 +12.4 46 +27 +27 жарко 1015.3 998.0
01 16.08 З 5 20 км ясно +25.0 +12.3 45 +27 +27 жарко 1014.8 997.6
02 16.08 СЗ 6 20 км ясно +25.0 +12.6 46 +27 +27 жарко 1014.2 997.0
03 16.08 СЗ 7 20 км ясно +24.4 +12.7 48 +26 +26 жарко 1014.3 997.0
04 16.08 СЗ 7 20 км ясно +24.2 +13.1 50 +26 +26 жарко 1014.1 996.8
05 16.08 СВ 4 30 км ясно +23.8 +12.8 50 +26 +26 жарко 1014.2 996.9
06 16.08 СЗ 4 20 км ясно +25.0 +13.2 48 +27 +28 жарко 1014.2 997.0 +23.6
07 16.08 С 9 20 км ясно +26.8 +11.3 38 +28 +28 жарко 1014.1 997.0
08 16.08 С 6 30 км ясно +28.8 +12.1 36 +30 +34 жарко 1014.2 997.2
09 16.08 В 4 20 км ясно +31.2 +10.4 28 +31 +40 жарко 1014.5 997.6
10 16.08 ЮВ 6 20 км ясно +33.2 +13.8 31 +34 +41 очень
жарко
1014.4 997.7
11 16.08 ЮВ 2 20 км ясно +35.2 +15.0 30 +37 +54 опасность
солнечного
удара
1014.3 997.7
12 16.08 Ю 2 20 км ясно +35.6 +14.4 28 +37 +54 опасность
солнечного
удара
1014.4 997.8
13 16.08 З 2 20 км ясно +32.8 +25.1 64 +47 +61 опасность
перегрева
1014.4 997.6
14 16.08 Ю 3 30 км ясно +33.0 +15.9 36 +36 +45 очень
душно
1014.0 997.2
15 16.08 В 3 20 км ясно +31.4 +16.4 41 +35 +41 очень
душно
1013.8 997.0
16 16.08 Ю 3 20 км ясно +31.0 +16.6 42 +34 +38 душно 1013.8 997.0
17 16.08 ЮВ 3 20 км ясно +30.6 +16.8 44 +34 +35 очень
душно
1013.8 996.9
18 16.08 ЮВ 3 20 км 1/0
[Ci fib]
+29.6 +20.3 57 +36 +36 очень
душно
1013.8 996.9 +35.6
19 16.08 ЮВ 2 20 км 1/0
[Ci fib]
+26.4 +20.8 71 +33 +33 очень
душно
1014.2 997.1
20 16.08 В 2 20 км 1/0
[Ci fib]
+25.4 +21.5 79 +32 +32 очень
душно
1015.0 997.8
21 16.08 СЗ 3 20 км ясно +24.4 +20.4 78 +30 +30 очень
душно
1015.2 997.9
22 16.08 СЗ 2 20 км ясно +24.2 +19.9 77 +30 +30 очень
душно
1015.3 998.0
23 16.08 СЗ 5 20 км ясно +22.6 +16.9 70 +27 +27 душно 1015.4 998.0
00 17.08 СЗ 5 20 км ясно +22.8 +16.8 69 +28 +28 душно 1015.6 998.2
01 17.08 СЗ 3 20 км ясно +22.8 +15.9 65 +27 +27 душно 1015.6 998.3
02 17.08 СЗ 4 20 км ясно +22.2 +15.8 67 +26 +26 душно 1015.6 998.2
03 17.08 СЗ 6 20 км ясно +22.0 +13.5 59 +25 +25 комфорт 1015.4 998.0
04 17.08 СЗ 5 20 км ясно +21.8 +14.7 64 +25 +25 комфорт 1015.5 998.1
05 17.08 СЗ 3 20 км ясно +22.0 +12.0 53 +24 +24 комфорт 1015.5 998.1
06 17.08 С 2 20 км ясно +23.0 +12.4 51 +26 +27 жарко 1015.4 998.1 +21.8
07 17.08 В 5 20 км ясно +26.8 +20.6 69 +33 +36 очень
душно
1015.5 998.4
08 17.08 В 6 30 км 1/1 1200 м
[Cu hum]
+28.0 +20.4 63 +34 +38 очень
душно
1016.1 999.0
09 17.08 В 5 20 км 1/1 1200 м
[Cu hum]
+29.0 +19.6 57 +35 +41 очень
душно
1016.2 999.2
10 17.08 ЮВ 5 20 км 1/1 1200 м
[Cu hum]
+31.2 +20.3 52 +38 +46 очень
душно
1016.1 999.2
11 17.08 ЮВ 5 20 км 1/1 1200 м
[Cu hum]
+32.0 +21.8 55 +41 +50 опасность
перегрева
1016.5 999.7
12 17.08 ЮВ 3 20 км 1/1 1200 м
[Cu hum]
+33.0 +22.7 55 +43 +55 опасность
перегрева
1016.4 999.6
13 17.08 СЗ 3 30 км 3/1 1200 м
[Cu hum Ci fib]
+33.6 +22.1 51 +42 +53 опасность
перегрева
1015.9 999.1
14 17.08 Ю 3 20 км 3/1 1200 м
[Cu hum Ci fib]
+32.0 +22.2 56 +41 +50 опасность
перегрева
1015.9 999.0
15 17.08 Ю 2 20 км 3/1 1200 м
[Cu hum Ci fib]
+31.0 +21.9 58 +39 +46 очень
душно
1015.9 999.0
16 17.08 Ю 2 20 км 3/1 1050 м
[Cu hum Ci fib]
+30.0 +21.4 60 +38 +41 очень
душно
1016.0 999.0
17 17.08 Ю 2 30 км 3/1 1050 м
[Cu hum Ci fib]
+29.8 +21.5 61 +38 +39 очень
душно
1015.6 998.6
18 17.08 З 1 20 км 4/1 1050 м
[Cu hum Ci sp]
+34.0 +27.9 71 +55 +55 опасность
перегрева
1014.9 998.2 +34.0
19 17.08 ЮЗ 2 20 км 4/1 1050 м
[Cu hum Ci sp]
+26.0 +23.0 84 +35 +35 очень
душно
1015.3 998.1
20 17.08 ЮЗ 3 20 км 3/0
[Ci sp]
+25.4 +23.5 89 +34 +34 очень
душно
1015.3 998.1
21 17.08 В 1 20 км 1/0
[Ci sp]
+25.2 +23.6 91 +34 +34 очень
душно
1015.3 998.1
22 17.08 СЗ 4 20 км ясно +24.0 +22.3 90 +31 +31 очень
душно
1015.4 998.1
23 17.08 З 4 20 км ясно +24.0 +22.3 90 +31 +31 очень
душно
1015.4 998.1
00 18.08 СЗ 3 20 км ясно +24.8 +23.2 91 +33 +33 очень
душно
1015.3 998.1
01 18.08 СЗ 4 20 км ясно +23.0 +21.9 94 +31 +31 очень
душно
1015.4 998.1
02 18.08 СЗ 4 20 км ясно +22.4 +21.0 92 +29 +29 очень
душно
1015.5 998.1
03 18.08 0 20 км н/о +22.4 +21.0 92 1015.5 998.1
04 18.08 СЗ 3 20 км ясно +22.4 +21.0 92 +29 +29 очень
душно
1015.5 998.1
05 18.08 СЗ 3 20 км н/о +22.0 +20.6 92 +28 +28 душно 1015.5 998.1
06 18.08 СЗ 3 20 км 1/1 600 м
[St]
+22.4 +20.7 90 +29 +30 очень
душно
1015.5 998.1 +22.0
07 18.08 ЮЗ 2 30 км 1/1 600 м
[St]
+23.6 +21.9 90 +30 +34 очень
душно
1015.4 998.1
08 18.08 Ю 4 20 км 3/3 1200 м
[]
+26.8 +23.1 80 +36 +40 очень
душно
1015.4 998.2
09 18.08 С 4 20 км 3/3 1200 м
[Cu hum]
+28.0 +23.2 75 +38 +44 очень
душно
1015.5 998.4
10 18.08 Ю 2 20 км 1/1 900 м
[Cu hum]
+31.8 +23.1 60 +42 +56 опасность
перегрева
1015.6 998.7
11 18.08 Ю 3 20 км 1/1 1200 м
[Cu hum]
+34.0 +23.1 53 +44 +58 опасность
перегрева
1015.2 998.5
12 18.08 З 3 20 км 1/1 1200 м
[Cu hum]
+33.6 +23.0 54 +44 +58 опасность
перегрева
1015.0 998.3
13 18.08 Ю 3 20 км 1/1 1200 м
[Cu hum]
+33.0 +22.5 54 +42 +53 опасность
перегрева
1015.1 998.3
14 18.08 ЮВ 3 20 км 1/1 1200 м
[Cu hum]
+32.2 +22.9 58 +42 +51 опасность
перегрева
1014.9 998.1
15 18.08 ЮВ 3 20 км 1/1 1200 м
[Cu hum]
+31.4 +22.7 60 +41 +47 опасность
перегрева
1014.9 998.0
16 18.08 Ю 2 20 км 1/1 1200 м
[Cu hum]
+31.0 +22.3 60 +40 +43 очень
душно
1014.9 998.0
17 18.08 ЮВ 3 20 км 1/1 1200 м
[Cu hum]
+30.6 +22.8 63 +40 +41 очень
душно
1014.5 997.6
18 18.08 Ю 3 20 км 1/1 900 м
[Cu hum]
+29.8 +23.7 70 +41 +41 опасность
перегрева
1014.6 997.6 +34.6
19 18.08 Ю 4 20 км ясно +26.4 +23.5 84 +36 +36 очень
душно
1014.7 997.5
20 18.08 Ю 4 20 км ясно +25.8 +23.7 88 +35 +35 очень
душно
1014.5 997.3
21 18.08 ЮЗ 4 20 км ясно +25.6 +24.7 95 +36 +36 очень
душно
1015.0 997.8
22 18.08 З 3 20 км ясно +24.6 +23.6 94 +33 +33 очень
душно
1015.1 997.9
23 18.08 З 3 20 км ясно +24.2 +23.9 98 +33 +33 очень
душно
1015.2 997.9
00 19.08 0 н/о 1000.0 1000.0
01 19.08 СЗ 5 20 км ясно +23.0 +23.0 100 +32 +32 очень
душно
1015.1 997.8
02 19.08 СЗ 4 20 км ясно +22.8 +22.8 100 +31 +31 очень
душно
1015.1 997.8
03 19.08 СЗ 4 20 км ясно +22.8 +22.8 100 +31 +31 очень
душно
1015.4 998.0
04 19.08 СЗ 6 20 км ясно +22.8 +22.8 100 +31 +31 очень
душно
1015.3 997.9
05 19.08 СЗ 5 20 км ясно +22.2 +22.0 99 +29 +29 очень
душно
1015.3 997.9
06 19.08 СЗ 5 20 км 1/1 1200 м
[Cu hum]
+22.4 +21.2 93 +29 +30 очень
душно
1016.0 998.6 +22.2
07 19.08 З 2 30 км н/о +24.0 +21.3 85 +30 +30 очень
душно
1015.7 998.4
08 19.08 ЮЗ 3 20 км 1/1 900 м
[Cu hum]
+25.8 +21.0 75 +32 +39 очень
душно
1015.5 998.3
09 19.08 В 2 20 км 1/0 1200 м
[]
+29.8 +22.3 64 +39 +50 очень
душно
1015.8 998.8
10 19.08 ЮВ 2 20 км ясно +32.2 +22.0 55 +41 +56 опасность
перегрева
1015.7 998.9
11 19.08 ЮВ 3 20 км ясно +33.6 +21.7 50 +42 +57 опасность
перегрева
1015.8 999.0
12 19.08 ЮВ 3 20 км ясно +34.2 +20.9 46 +41 +57 опасность
перегрева
1015.7 999.0
13 19.08 ЮВ 3 20 км 1/1 1200 м
[Cu hum]
+34.0 +21.1 47 +41 +53 опасность
перегрева
1015.9 999.1
14 19.08 ЮЗ 3 30 км 1/1 1200 м
[Cu hum]
+32.0 +21.5 54 +40 +49 очень
душно
1016.0 999.1
15 19.08 В 2 20 км 1/1 900 м
[Cu hum]
+31.0 +22.3 60 +40 +46 очень
душно
1016.0 999.1
16 19.08 С 2 20 км 1/0 900 м
[]
+29.6 +22.8 67 +39 +42 очень
душно
1016.2 999.2
17 19.08 Ю 2 20 км ясно +29.8 +22.0 63 +38 +39 очень
душно
1016.1 999.1
18 19.08 Ю 3 20 км ясно +28.0 +20.8 65 +35 +35 очень
душно
1016.2 999.1 +34.4
19 19.08 Ю 3 20 км ясно +26.0 +23.3 85 +35 +35 очень
душно
1016.2 999.0
20 19.08 Ю 4 20 км ясно +25.4 +23.3 88 +34 +34 очень
душно
1016.3 999.1
21 19.08 З 2 20 км 1/1 1200 м
[Cu hum]
+24.4 +22.7 90 +32 +32 очень
душно
1016.5 999.2
22 19.08 З 4 20 км ясно +23.6 +21.1 86 +30 +30 очень
душно
1016.6 999.3
23 19.08 СЗ 4 20 км ясно +23.4 +20.7 85 +31 +31 очень
душно
1016.7 999.3
00 20.08 З 3 20 км ясно +23.2 +20.5 85 +31 +31 очень
душно
1016.7 999.3
01 20.08 З 3 20 км ясно +23.0 +20.9 88 +30 +30 очень
душно
1016.7 999.3
02 20.08 СЗ 5 20 км ясно +21.6 +20.8 95 +27 +27 душно 1016.8 999.3
03 20.08 З 4 20 км ясно +21.6 +19.9 90 +27 +27 душно 1016.4 998.9
04 20.08 З 3 20 км ясно +22.0 +20.3 90 +28 +28 душно 1016.4 999.0
05 20.08 СЗ 5 20 км ясно +21.0 +19.3 90 +26 +26 душно 1016.5 999.0
06 20.08 СЗ 4 20 км ясно +21.0 +19.3 90 +26 +27 душно 1016.5 999.0 +20.8
07 20.08 ЮЗ 2 20 км ясно +23.0 +20.3 85 +30 +34 очень
душно
1016.4 999.0
08 20.08 Ю 4 30 км ясно +25.0 +21.7 82 +32 +37 очень
душно
1016.5 999.2
09 20.08 Ю 2 20 км ясно +28.6 +22.4 69 +37 +50 очень
душно
1016.5 999.4
10 20.08 ЮВ 2 20 км ясно +32.2 +22.3 56 +41 +58 опасность
перегрева
1016.4 999.5
11 20.08 ЮВ 2 20 км ясно +33.0 +22.1 53 +42 +59 опасность
перегрева
1016.5 999.7
12 20.08 Ю 3 20 км ясно +32.0 +21.8 55 +41 +54 опасность
перегрева
1016.6 999.7
13 20.08 Ю 3 20 км ясно +31.8 +23.3 61 +43 +56 опасность
перегрева
1016.2 999.3
14 20.08 Ю 3 30 км ясно +31.4 +23.8 64 +43 +53 опасность
перегрева
1015.9 999.0
15 20.08 ЮВ 3 20 км ясно +31.2 +24.1 66 +43 +49 опасность
перегрева
1015.7 998.8
16 20.08 Ю 3 20 км ясно +31.0 +24.9 70 +44 +47 опасность
перегрева
1015.8 998.9
17 20.08 Ю 6 30 км ясно +28.2 +24.0 78 +39 +39 очень
душно
1016.0 999.0
18 20.08 Ю 6 20 км ясно +26.2 +24.4 90 +37 +37 очень
душно
1015.9 998.7 +33.4
19 20.08 ЮЗ 6 20 км ясно +25.4 +25.4 100 +37 +37 очень
душно
1016.0 998.7
20 20.08 ЮЗ 6 20 км ясно +25.2 +24.7 97 +35 +35 очень
душно
1016.0 998.8
21 20.08 ЮЗ 4 20 км ясно +25.0 +25.0 100 +36 +36 очень
душно
1016.2 999.0
22 20.08 ЮЗ 4 20 км ясно +24.8 +24.3 97 +34 +34 очень
душно
1016.3 999.0
23 20.08 ЮЗ 4 20 км ясно +24.6 +23.9 96 +34 +34 очень
душно
1016.2 998.9
00 21.08 ЮЗ 5 20 км ясно +24.6 +23.6 94 +33 +33 очень
душно
1016.2 998.9
01 21.08 ЮЗ 4 20 км ясно +24.4 +22.7 90 +32 +32 очень
душно
1016.3 999.0
02 21.08 ЮЗ 3 20 км ясно +24.2 +22.3 89 +31 +31 очень
душно
1016.3 999.0
03 21.08 ЮЗ 4 20 км ясно +24.0 +21.9 88 +31 +31 очень
душно
1016.2 998.9
04 21.08 ЮЗ 4 20 км ясно +23.8 +21.5 87 +30 +30 очень
душно
1016.3 998.9
05 21.08 Ю 1 20 км ясно +23.6 +20.7 84 +29 +30 душно 1016.3 999.0
06 21.08 Ю 3 20 км ясно +24.0 +21.1 84 +30 +32 очень
душно
1016.4 999.0 +22.8
07 21.08 ЮЗ 3 20 км 3/3 1500 м
[]
+24.8 +20.1 75 +30 +33 душно 1016.9 999.6
08 21.08 Ю 4 20 км 1/1 1200 м
[Cu hum]
+26.0 +21.5 76 +33 +38 очень
душно
1017.2 1000.0
09 21.08 Ю 4 20 км 1/1 1200 м
[Cu hum]
+28.2 +23.3 75 +38 +46 очень
душно
1017.1 1000.0
10 21.08 СЗ 3 20 км 1/1 1200 м
[Cu hum]
+29.0 +23.0 70 +39 +51 опасность
солнечного
удара
1017.0 1000.0
11 21.08 С 3 30 км 1/1 1200 м
[Cu med, cong]
+31.0 +23.4 64 +42 +55 опасность
перегрева
1016.9 1000.0
12 21.08 ЮЗ 3 20 км 1/1 1200 м
[Cu med, cong]
+32.0 +22.5 57 +41 +55 опасность
перегрева
1016.8 1000.0
13 21.08 Ю 4 20 км 1/1 1200 м
[Cu med, cong]
+31.4 +23.6 63 +42 +52 опасность
перегрева
1016.4 999.5
14 21.08 Ю 4 20 км 1/1 1200 м
[Cu med, cong]
+31.2 +22.5 60 +41 +47 опасность
перегрева
1016.2 999.3
15 21.08 Ю 4 20 км 1/1 1200 м
[Cu hum]
+30.8 +24.1 68 +43 +47 опасность
перегрева
1015.9 999.0
16 21.08 Ю 5 20 км 1/1 1200 м
[Cu hum]
+30.0 +23.8 69 +41 +43 опасность
перегрева
1015.9 998.9
17 21.08 Ю 6 20 км 1/1 1200 м
[Cu hum]
+28.0 +24.5 81 +39 +40 очень
душно
1016.1 999.0
18 21.08 Ю 6 20 км 1/1 1200 м
[Cu hum]
+26.8 +25.2 91 +39 +39 очень
душно
1016.1 998.9 +32.0
19 21.08 Ю 6 30 км 1/1 1200 м
[Cu hum]
+25.8 +25.8 100 +38 +38 очень
душно
1016.1 998.9
20 21.08 ЮЗ 6 20 км ясно +25.2 +25.2 100 +36 +36 очень
душно
1016.2 999.0
21 21.08 З 3 20 км ясно +25.0 +25.0 100 +36 +36 очень
душно
1016.2 999.0
22 21.08 ЮЗ 3 20 км ясно +24.6 +22.9 90 +33 +33 очень
душно
1016.2 999.0
23 21.08 В 2 20 км ясно +25.0 +23.3 90 +33 +33 очень
душно
1016.2 999.0
00 22.08 В 2 20 км ясно +24.4 +24.4 100 +34 +34 очень
душно
1016.2 999.0
01 22.08 ЮВ 1 30 км н/о +24.2 +24.2 100 +33 +33 очень
душно
1016.3 999.0
02 22.08 СЗ 4 20 км ясно +23.0 +21.3 90 +31 +31 очень
душно
1016.3 999.0
03 22.08 СЗ 5 20 км ясно +23.0 +19.3 80 +29 +29 очень
душно
1016.3 999.0
04 22.08 СЗ 4 20 км ясно +23.0 +19.8 82 +30 +30 очень
душно
1016.3 999.0

 

Местоположение метеостанции Капо Беллависто (Италия): широта 39.93 долгота 9.72 высота над уровнем моря 150 м.

В архиве по умолчанию представлена погода на Капо Беллависто за последнюю неделю. Архивные данные за месяц целиком и за предыдущие месяцы, начиная с января 2011 года, Вы можете получить, выбрав интересующий диапазон дат из раскрывающегося списка и нажав кнопку "Ввод!".


*Определитесь, кто Вы:
робот инопланетянин человек

Внимание! Время в таблицах - всемирное. Для получения местного времени необходимо прибавить поправку, которая равна 1 ч.

Смотрите также архив погоды в соседних городах и на ближайших метеорологических станциях:

Погода в Дечимоманну (Италия) (91 км)
Погода на Капо Карбонара (Италия) (94 км)
Погода на Капо Фраска (Италия) (109 км)
Погода в Ольвии (Италия) (109 км)
Погода в Альгеро (Италия) (145 км)
Погода на Капо Кацция (Италия) (150 км)
Погода на Мысе Пертюзато (Франция) (167 км)
Погода в Фигари (Франция) (182 км)
Погода в Соленцаре (Франция) (223 км)
Погода в Аяччо (Франция) (234 км)

Пояснения к столбцам:

Ветер - указаны скорость ветра в м/с - средняя за 10 мин, порывы в срок и между сроками (в фигурных скобках) и направление, откуда дует ветер: С - северный, СВ - северо-восточный, В - восточный, ЮВ - юго-восточный, Ю - южный, ЮЗ - юго-западный, З - западный, СЗ - северо-западный.
Видимость - горизонтальная дальность видимости в метрах или километрах. При видимости от 1 до 10 км при отсутствии осадков обычно наблюдается дымка, при ухудшении видимости до 1 км и менее - туман. В сухую погоду видимость может ухудшаться дымом, пылью или мглою.
Явления - указаны атмосферные явления, наблюдавшиеся в срок или в последний час перед сроком; фигурными скобками обозначены явления, наблюдавшиеся между сроками (за 1-3 часа до срока); квадратными скобками обозначены град или гололедные отложения с указанием их диаметра в мм.
Облачность - указаны через наклонную черту общая и нижняя облачность в баллах и высота нижней границы облаков в метрах; квадратными скобками обозначены формы облаков: Ci - перистые, Cs - перисто-слоистые, Cc - перисто-кучевые, Ac - высококучевые, As - высокослоистые, Sc - слоисто-кучевые, Ns - слоисто-дождевые, Cu - кучевые, Cb - кучево-дождевые. Подробнее классификацию облаков см. в Атласе облаков (PDF).
T - Температура воздуха - температура, измеренная на высоте 2 м над землей.
Td - Температура точки росы - температура, при понижении до которой содержащийся в воздухе водяной пар достигнет насыщения.
f - Относительная влажность воздуха - влажноcть воздуха, измеренная на высоте 2 м над землей.
Te - Эффективная температура - температура, которую ощущает одетый по сезону человек в тени. Характеристика душности погоды. При расчете учитывается влияние влажности воздуха и скорости ветра на теплоощущения человека.
Tes - Эффективная температура на солнце - температура, которую ощущает человек, с поправкой на солнечный нагрев. Характеристика знойности погоды. Зависит от высоты солнца над горизонтом, облачности и скорости ветра. Ночью, в пасмурную погоду, а также при ветре 12 м/с и более поправка равна нулю.
P - Атмосферное давление - приведенное к уровню моря атмосферное давление.
Po - Атмосферное давление - измеренное на уровне метеостанции атмосферное давление.
Tmin - Минимальная температура - минимум температуры воздуха на высоте 2 м над землей.
Tmax - Максимальная температура - максимум температуры воздуха на высоте 2 м над землей.
R - Количество осадков - Количество выпавших осадков за период времени, мм. При наведении курсора мыши на число - период времени, за который выпало указанное количество осадков.
R24 - Количество осадков - Количество выпавших осадков за 24 часа, мм.
S - Снежный покров - Высота снежного покрова, см. При наведении курсора мыши на число - состояние снежного покрова и степень покрытия местности в баллах.